Home > Weather > Sendai > Past weeks

Flag for Japan Past Weather in Sendai, Japan — Yesterday and Last 2 Weeks

Now
75 °F

Partly cloudy.


Feels Like: 75 °F
Forecast: 69 / 87 °F
Wind: 7 mph from South

Location: Sendai Airport

Current Time: Jul 30, 2016 at 4:52:14 AM

Latest Report: Jul 29, 2016 at 9:00 PM


Visibility: N/A

Pressure: 29.92 "Hg

Humidity: 83%

Dew Point: 70 °F

Location of SendaiLocation

Past Weather in Sendai — Graph

°F

Sendai Temperature Yesterday

Maximum temperature yesterday: 82 °F (at 9:00 AM)
Minimum temperature yesterday: 75 °F (at 6:00 AM)
Average temperature yesterday: 79 °F

High & Low Weather Summary for the Past Weeks

 TemperatureHumidityPressure
High84 °F (Jul 18, 12:00 PM)94% (Jul 16, 9:00 PM)30.04 "Hg (Jul 16, 9:00 PM)
Low66 °F (Jul 23, 6:00 AM)57% (Jul 22, 8:00 AM)29.45 "Hg (Jul 14, 9:00 PM)
Average74 °F76%29.86 "Hg
* Reported Jul 14 9:00 PM — Jul 29 9:00 PM, Sendai, Weather by CustomWeather, © 2016

Note: Actual official high and low records may vary slightly from our data, if they occured in-between our weather recording intervals... More about our weather records

Advertising

Sendai Weather History for the Previous 24 Hours

Scroll right to see more
 ConditionsComfort  
Time TempWeatherWind HumidityBarometerVisibility
9:00 PM
Fri, Jul 29
75 °FPartly cloudy.7 mph83%29.92 "HgN/A
8:00 PM75 °FPassing clouds.8 mph83%29.92 "HgN/A
7:00 PM75 °FPartly cloudy.6 mph89%29.92 "HgN/A
6:00 PM77 °FScattered clouds.6 mph74%29.92 "HgN/A
5:00 PM79 °FPassing clouds.13 mph70%29.89 "HgN/A
4:00 PM81 °FPassing clouds.13 mph66%29.89 "HgN/A
3:00 PM81 °FPassing clouds.16 mph70%29.89 "HgN/A
2:00 PM82 °FPassing clouds.14 mph66%29.89 "HgN/A
1:00 PM81 °FPassing clouds.16 mph70%29.92 "HgN/A
12:00 PM82 °FPassing clouds.14 mph66%29.92 "HgN/A
11:00 AM82 °FPassing clouds.13 mph62%29.92 "HgN/A
10:00 AM82 °FPassing clouds.8 mph74%29.92 "HgN/A
9:00 AM82 °FScattered clouds.6 mph74%29.92 "HgN/A
8:00 AM81 °FScattered clouds.2 mph79%29.92 "HgN/A
7:00 AM77 °FBroken clouds.2 mph89%29.92 "Hg4 mi
6:00 AM75 °FPartly sunny.5 mph94%29.92 "Hg4 mi
Weather by CustomWeather, © 2016

See weather overviewHow to use our weather pages